| time (UTC) | temp F | wind direction | speed knots | gust knots | rain 1hr in | rain 24hr in | rain mn in | humidity % | barometer mb |
| 20260507164014 | 56 | 203 | 1.7 | 1.7 | 0.00 | 0.17 | 0.17 | 93 | 1015.0 |
| 20260507163502 | 56 | 180 | 0.9 | 1.7 | 0.00 | 0.17 | 0.17 | 93 | 1015.0 |
| 20260507162951 | 56 | 180 | 1.7 | 1.7 | 0.00 | 0.17 | 0.17 | 93 | 1015.0 |
| 20260507161423 | 55 | 225 | 0.9 | 1.7 | 0.00 | 0.17 | 0.17 | 95 | 1014.7 |
| 20260507160909 | 55 | 225 | 0.0 | 1.7 | 0.01 | 0.17 | 0.17 | 95 | 1014.9 |
| 20260507160400 | 56 | 225 | 0.0 | 1.7 | 0.01 | 0.17 | 0.17 | 95 | 1015.3 |
| 20260507155849 | 55 | 225 | 0.0 | 1.7 | 0.02 | 0.17 | 0.17 | 95 | 1015.2 |
| 20260507155340 | 55 | 225 | 0.9 | 1.7 | 0.05 | 0.17 | 0.17 | 95 | 1015.2 |
| 20260507154845 | 54 | 180 | 0.0 | 1.7 | 0.07 | 0.17 | 0.17 | 95 | 1015.3 |
| 20260507153809 | 55 | 180 | 0.0 | 3.5 | 0.09 | 0.17 | 0.17 | 95 | 1015.5 |
| 20260507153259 | 54 | 203 | 1.7 | 3.5 | 0.11 | 0.17 | 0.17 | 95 | 1015.7 |
| 20260507152749 | 54 | 203 | 0.9 | 3.5 | 0.11 | 0.17 | 0.17 | 95 | 1015.3 |
| 20260507152242 | 54 | 180 | 1.7 | 3.5 | 0.13 | 0.17 | 0.17 | 96 | 1015.3 |
| 20260507151729 | 54 | 158 | 0.9 | 3.5 | 0.13 | 0.17 | 0.17 | 95 | 1015.4 |
| 20260507151219 | 54 | 113 | 0.9 | 3.5 | 0.12 | 0.15 | 0.15 | 96 | 1015.3 |
| 20260507150709 | 54 | 135 | 1.7 | 3.5 | 0.12 | 0.15 | 0.15 | 95 | 1015.3 |
| 20260507150157 | 54 | 135 | 1.7 | 5.2 | 0.12 | 0.15 | 0.15 | 95 | 1015.5 |
| 20260507145651 | 54 | 135 | 1.7 | 5.2 | 0.11 | 0.14 | 0.14 | 95 | 1015.0 |
| 20260507145138 | 54 | 135 | 2.6 | 5.2 | 0.09 | 0.11 | 0.11 | 95 | 1015.0 |
| 20260507144629 | 55 | 180 | 1.7 | 5.2 | 0.08 | 0.08 | 0.09 | 95 | 1015.9 |
| 20260507144117 | 55 | 225 | 1.7 | 6.1 | 0.07 | 0.07 | 0.07 | 94 | 1015.5 |
| 20260507143607 | 55 | 158 | 1.7 | 7.8 | 0.07 | 0.07 | 0.07 | 94 | 1015.4 |
| 20260507143100 | 54 | 203 | 3.5 | 7.8 | 0.06 | 0.06 | 0.06 | 94 | 1015.6 |
| 20260507142547 | 55 | 203 | 3.5 | 6.1 | 0.05 | 0.05 | 0.05 | 94 | 1015.5 |
| 20260507142037 | 55 | 225 | 2.6 | 7.0 | 0.04 | 0.04 | 0.04 | 93 | 1015.6 |
| 20260507141527 | 55 | 135 | 1.7 | 7.0 | 0.04 | 0.04 | 0.04 | 92 | 1015.5 |
| 20260507141016 | 55 | 203 | 3.5 | 9.6 | 0.04 | 0.04 | 0.04 | 91 | 1015.8 |
| 20260507140510 | 56 | 135 | 3.5 | 9.6 | 0.04 | 0.04 | 0.04 | 90 | 1015.2 |
| 20260507140001 | 57 | 180 | 1.7 | 6.1 | 0.04 | 0.04 | 0.04 | 86 | 1015.0 |
| 20260507135511 | 58 | 180 | 3.5 | 7.8 | 0.02 | 0.02 | 0.02 | 81 | 1015.4 |
| 20260507134936 | 58 | 248 | 1.7 | 7.8 | 0.00 | 0.00 | 0.01 | 82 | 1014.8 |
| 20260507134430 | 58 | 293 | 1.7 | 13.0 | 0.00 | 0.00 | 0.00 | 82 | 1014.9 |
| 20260507133919 | 58 | 203 | 3.5 | 13.0 | 0.00 | 0.00 | 0.00 | 80 | 1015.2 |
| 20260507133405 | 60 | 225 | 3.5 | 14.8 | 0.00 | 0.00 | 0.00 | 73 | 1015.6 |
| 20260507132346 | 60 | 225 | 7.0 | 13.9 | 0.00 | 0.00 | 0.00 | 68 | 1015.5 |
| 20260507131835 | 60 | 180 | 7.0 | 13.9 | 0.00 | 0.00 | 0.00 | 68 | 1015.4 |
| 20260507131328 | 59 | 203 | 3.5 | 13.0 | 0.00 | 0.00 | 0.00 | 70 | 1015.2 |
| 20260507130815 | 59 | 248 | 2.6 | 14.8 | 0.00 | 0.00 | 0.00 | 71 | 1015.3 |
| 20260507130306 | 58 | 270 | 4.3 | 15.6 | 0.00 | 0.00 | 0.00 | 71 | 1014.9 |
| 20260507125754 | 58 | 225 | 6.1 | 15.6 | 0.00 | 0.00 | 0.00 | 72 | 1014.8 |
| 20260507125244 | 58 | 203 | 9.6 | 18.2 | 0.00 | 0.00 | 0.00 | 74 | 1014.8 |
| 20260507124736 | 58 | 225 | 9.6 | 18.2 | 0.00 | 0.00 | 0.00 | 74 | 1014.4 |
| 20260507124224 | 58 | 203 | 7.8 | 19.1 | 0.00 | 0.00 | 0.00 | 75 | 1014.3 |
| 20260507123204 | 58 | 248 | 9.6 | 20.9 | 0.00 | 0.00 | 0.00 | 74 | 1014.4 |
| 20260507122654 | 58 | 225 | 7.8 | 19.1 | 0.00 | 0.00 | 0.00 | 75 | 1014.2 |
| 20260507121633 | 58 | 225 | 10.4 | 20.9 | 0.00 | 0.00 | 0.00 | 79 | 1014.0 |
| 20260507121124 | 58 | 180 | 9.6 | 20.9 | 0.00 | 0.00 | 0.00 | 80 | 1013.8 |
| 20260507120613 | 58 | 180 | 8.7 | 20.0 | 0.00 | 0.00 | 0.00 | 80 | 1013.1 |
| 20260507120116 | 58 | 225 | 9.6 | 20.0 | 0.00 | 0.00 | 0.00 | 79 | 1013.0 |
| 20260507115556 | 58 | 203 | 7.8 | 20.0 | 0.00 | 0.00 | 0.00 | 78 | 1012.8 |
| 20260507115043 | 58 | 203 | 9.6 | 23.5 | 0.00 | 0.00 | 0.00 | 78 | 1012.5 |
| 20260507113513 | 60 | 203 | 11.3 | 31.3 | 0.00 | 0.00 | 0.00 | 78 | 1011.5 |
| 20260507113005 | 63 | 225 | 13.9 | 31.3 | 0.00 | 0.00 | 0.00 | 65 | 1011.0 |
| 20260507112451 | 65 | 180 | 18.2 | 27.8 | 0.00 | 0.00 | 0.00 | 58 | 1010.6 |
| 20260507111942 | 65 | 248 | 13.0 | 25.2 | 0.00 | 0.00 | 0.00 | 58 | 1010.8 |
| 20260507111444 | 65 | 203 | 13.9 | 26.9 | 0.00 | 0.00 | 0.00 | 58 | 1010.5 |
| 20260507110921 | 65 | 225 | 13.0 | 27.8 | 0.00 | 0.00 | 0.00 | 58 | 1010.1 |
| 20260507110413 | 66 | 180 | 9.6 | 27.8 | 0.00 | 0.00 | 0.00 | 58 | 1009.7 |
| 20260507105351 | 66 | 248 | 13.0 | 27.8 | 0.00 | 0.00 | 0.00 | 64 | 1009.2 |
| 20260507104841 | 66 | 225 | 13.0 | 27.8 | 0.00 | 0.00 | 0.00 | 66 | 1009.0 |
| 20260507104330 | 66 | 248 | 13.9 | 23.5 | 0.00 | 0.00 | 0.00 | 67 | 1008.8 |
| 20260507103823 | 66 | 180 | 13.9 | 23.5 | 0.00 | 0.00 | 0.00 | 68 | 1008.5 |
| 20260507103310 | 66 | 203 | 9.6 | 15.6 | 0.00 | 0.00 | 0.00 | 71 | 1008.5 |
| 20260507102800 | 66 | 225 | 7.0 | 13.0 | 0.00 | 0.00 | 0.00 | 71 | 1008.3 |
| 20260507102250 | 66 | 203 | 7.0 | 13.9 | 0.00 | 0.00 | 0.00 | 72 | 1008.3 |
| 20260507101739 | 65 | 225 | 7.0 | 13.9 | 0.00 | 0.00 | 0.00 | 74 | 1007.8 |
| 20260507100719 | 65 | 225 | 5.2 | 9.6 | 0.00 | 0.00 | 0.00 | 85 | 1007.5 |
| 20260507100228 | 65 | 135 | 3.5 | 7.0 | 0.00 | 0.00 | 0.00 | 86 | 1007.4 |
| 20260507095659 | 66 | 158 | 4.3 | 7.0 | 0.00 | 0.00 | 0.00 | 85 | 1007.1 |
| 20260507095149 | 66 | 180 | 1.7 | 6.1 | 0.00 | 0.00 | 0.00 | 84 | 1007.2 |
| 20260507094641 | 67 | 203 | 0.9 | 3.5 | 0.00 | 0.00 | 0.00 | 84 | 1006.9 |
| 20260507094129 | 67 | 248 | 0.9 | 3.5 | 0.00 | 0.00 | 0.00 | 84 | 1007.0 |
| 20260507093618 | 67 | 225 | 1.7 | 3.5 | 0.00 | 0.00 | 0.00 | 84 | 1006.5 |
| 20260507093108 | 67 | 248 | 1.7 | 1.7 | 0.00 | 0.00 | 0.00 | 84 | 1006.8 |
| 20260507092558 | 67 | 270 | 0.9 | 1.7 | 0.00 | 0.00 | 0.00 | 84 | 1006.5 |
| 20260507092051 | 67 | 315 | 0.0 | 1.7 | 0.00 | 0.00 | 0.00 | 84 | 1006.7 |
| 20260507091537 | 67 | 270 | 0.0 | 1.7 | 0.00 | 0.00 | 0.00 | 84 | 1006.1 |
| 20260507091027 | 67 | 270 | 0.9 | 1.7 | 0.00 | 0.00 | 0.00 | 84 | 1006.3 |
| 20260507090531 | 67 | 293 | 0.0 | 1.7 | 0.00 | 0.00 | 0.00 | 84 | 1006.4 |
| 20260507090008 | 67 | 270 | 0.9 | 1.7 | 0.00 | 0.00 | 0.00 | 84 | 1006.3 |
| 20260507084947 | 67 | 203 | 1.7 | 3.5 | 0.00 | 0.00 | 0.00 | 84 | 1023.7 |
| 20260507084437 | 67 | 248 | 0.9 | 1.7 | 0.00 | 0.00 | 0.00 | 84 | 1006.4 |
| 20260507083927 | 67 | 248 | 0.0 | 3.5 | 0.00 | 0.00 | 0.00 | 84 | 1006.3 |
| 20260507082909 | 67 | 248 | 1.7 | 3.5 | 0.00 | 0.00 | 0.00 | 84 | 1005.8 |
| 20260507082356 | 67 | 293 | 1.7 | 3.5 | 0.00 | 0.00 | 0.00 | 83 | 1006.3 |
| 20260507081846 | 66 | 293 | 1.7 | 3.5 | 0.00 | 0.00 | 0.00 | 84 | 1006.2 |
| 20260507081336 | 66 | 270 | 0.9 | 3.5 | 0.00 | 0.00 | 0.00 | 84 | 1005.7 |
| 20260507080826 | 66 | 315 | 3.5 | 3.5 | 0.00 | 0.00 | 0.00 | 84 | 1006.5 |
| 20260507080319 | 66 | 270 | 0.9 | 3.5 | 0.00 | 0.00 | 0.00 | 84 | 1005.5 |
| 20260507075255 | 66 | 293 | 0.0 | 1.7 | 0.00 | 0.00 | 0.00 | 84 | 1005.6 |
| 20260507074235 | 66 | 293 | 0.9 | 3.5 | 0.00 | 0.00 | 0.00 | 83 | 1005.6 |
| 20260507073728 | 66 | 270 | 0.9 | 3.5 | 0.00 | 0.00 | 0.00 | 83 | 1005.3 |
| 20260507073215 | 66 | 293 | 1.7 | 3.5 | 0.00 | 0.00 | 0.00 | 82 | 1005.4 |
| 20260507072154 | 66 | 248 | 1.7 | 3.5 | 0.00 | 0.00 | 0.00 | 81 | 1005.2 |
| 20260507071645 | 66 | 293 | 0.9 | 3.5 | 0.00 | 0.00 | 0.00 | 81 | 1005.4 |
| 20260507071137 | 66 | 315 | 1.7 | 3.5 | 0.00 | 0.00 | 0.00 | 82 | 1005.3 |
| 20260507070114 | 65 | 293 | 0.9 | 3.5 | 0.00 | 0.00 | 0.00 | 81 | 1005.4 |
| 20260507065604 | 66 | 293 | 0.9 | 3.5 | 0.00 | 0.00 | 0.00 | 80 | 1005.2 |
| 20260507065054 | 66 | 293 | 1.7 | 3.5 | 0.00 | 0.00 | 0.00 | 81 | 1005.3 |
| 20260507064546 | 66 | 293 | 0.0 | 3.5 | 0.00 | 0.00 | 0.00 | 79 | 1005.4 |
| 20260507064033 | 66 | 293 | 1.7 | 3.5 | 0.00 | 0.00 | 0.00 | 80 | 1005.3 |
| 20260507063020 | 66 | 338 | 0.9 | 1.7 | 0.00 | 0.00 | 0.00 | 80 | 1005.3 |
| 20260507062504 | 67 | 338 | 1.7 | 1.7 | 0.00 | 0.00 | 0.00 | 80 | 1005.4 |
| 20260507061956 | 66 | 338 | 0.0 | 0.0 | 0.00 | 0.00 | 0.00 | 80 | 1005.5 |
| 20260507061719 | 66 | 338 | 0.9 | 0.0 | 0.00 | 0.00 | 0.00 | 80 | 1005.7 |
| 20260507060546 | 67 | 338 | 0.9 | 1.7 | 0.00 | 0.00 | 0.00 | 79 | 1005.8 |
| 20260507060038 | 67 | 338 | 1.7 | 1.7 | 0.00 | 0.00 | 0.00 | 79 | 1006.2 |
| 20260507055525 | 67 | 0 | 0.9 | 1.7 | 0.00 | 0.00 | 0.00 | 78 | 1005.8 |
| 20260507054505 | 68 | 0 | 0.0 | 3.5 | 0.00 | 0.00 | 0.00 | 76 | 1006.1 |
| 20260507053956 | 68 | 315 | 1.7 | 3.5 | 0.00 | 0.00 | 0.00 | 76 | 1006.2 |
| 20260507053447 | 68 | 338 | 1.7 | 3.5 | 0.00 | 0.00 | 0.00 | 76 | 1006.0 |
| 20260507052935 | 68 | 338 | 0.9 | 3.5 | 0.00 | 0.00 | 0.00 | 76 | 1006.0 |
| 20260507051914 | 67 | 315 | 1.7 | 3.5 | 0.00 | 0.00 | 0.00 | 77 | 1006.1 |
| 20260507051404 | 67 | 315 | 1.7 | 3.5 | 0.00 | 0.00 | 0.00 | 77 | 1006.2 |
| 20260507050857 | 67 | 338 | 1.7 | 3.5 | 0.00 | 0.00 | 0.00 | 77 | 1005.8 |
| 20260507050344 | 67 | 315 | 1.7 | 3.5 | 0.00 | 0.00 | 0.00 | 78 | 1006.0 |
| 20260507045835 | 67 | 0 | 1.7 | 3.5 | 0.00 | 0.00 | 0.00 | 78 | 1006.2 |
| 20260507045324 | 66 | 338 | 1.7 | 1.7 | 0.00 | 0.00 | 0.00 | 79 | 1006.3 |
| 20260507044814 | 66 | 338 | 0.0 | 1.7 | 0.00 | 0.00 | 0.00 | 79 | 1006.1 |
| 20260507044306 | 66 | 315 | 0.0 | 3.5 | 0.00 | 0.00 | 0.00 | 79 | 1006.3 |
| 20260507043244 | 66 | 338 | 1.7 | 3.5 | 0.00 | 0.00 | 0.00 | 80 | 1006.4 |
| 20260507042733 | 66 | 338 | 0.9 | 3.5 | 0.00 | 0.00 | 0.00 | 80 | 1006.4 |
| 20260507042223 | 66 | 0 | 1.7 | 3.5 | 0.00 | 0.00 | 0.00 | 80 | 1006.5 |
| 20260507041715 | 66 | 338 | 1.7 | 3.5 | 0.00 | 0.00 | 0.00 | 80 | 1006.7 |
| 20260507041203 | 66 | 0 | 1.7 | 3.5 | 0.00 | 0.00 | 0.00 | 81 | 1006.8 |
| 20260507040652 | 66 | 0 | 1.7 | 3.5 | 0.00 | 0.00 | 0.00 | 81 | 1006.6 |
| 20260507040148 | 66 | 338 | 1.7 | 3.5 | 0.00 | 0.00 | 0.00 | 80 | 1006.7 |
| 20260507035632 | 66 | 0 | 1.7 | 3.5 | 0.00 | 0.00 | 0.00 | 80 | 1006.7 |
| 20260507035133 | 67 | 45 | 1.7 | 3.5 | 0.00 | 0.00 | 0.00 | 80 | 1007.0 |
| 20260507034611 | 67 | 90 | 1.7 | 3.5 | 0.00 | 0.00 | 0.00 | 79 | 1007.0 |
| 20260507034102 | 67 | 45 | 1.7 | 3.5 | 0.00 | 0.00 | 0.00 | 78 | 1006.9 |
| 20260507033551 | 67 | 45 | 1.7 | 3.5 | 0.00 | 0.00 | 0.00 | 78 | 1006.8 |
| 20260507033041 | 67 | 158 | 0.0 | 3.5 | 0.00 | 0.00 | 0.00 | 78 | 1007.0 |
| 20260507032535 | 67 | 113 | 1.7 | 3.5 | 0.00 | 0.00 | 0.00 | 78 | 1006.9 |
| 20260507032020 | 67 | 90 | 1.7 | 7.0 | 0.00 | 0.00 | 0.00 | 78 | 1006.9 |
| 20260507031513 | 68 | 68 | 2.6 | 7.0 | 0.00 | 0.00 | 0.00 | 76 | 1006.5 |
| 20260507031001 | 69 | 113 | 0.9 | 5.2 | 0.00 | 0.00 | 0.00 | 74 | 1006.6 |
| 20260507030451 | 70 | 158 | 0.9 | 6.1 | 0.00 | 0.00 | 0.00 | 71 | 1006.4 |
| 20260507025943 | 70 | 225 | 1.7 | 7.8 | 0.00 | 0.00 | 0.00 | 71 | 1006.0 |
| 20260507025433 | 70 | 225 | 4.3 | 7.8 | 0.00 | 0.00 | 0.00 | 71 | 1005.8 |
| 20260507024410 | 70 | 203 | 5.2 | 7.0 | 0.00 | 0.00 | 0.00 | 72 | 1005.7 |
| 20260507023901 | 70 | 203 | 2.6 | 7.8 | 0.00 | 0.00 | 0.00 | 72 | 1005.7 |
| 20260507023353 | 70 | 203 | 3.5 | 9.6 | 0.00 | 0.00 | 0.00 | 71 | 1005.4 |
| 20260507022839 | 71 | 270 | 3.5 | 11.3 | 0.00 | 0.00 | 0.00 | 69 | 1005.3 |
| 20260507022342 | 71 | 203 | 6.1 | 11.3 | 0.00 | 0.00 | 0.00 | 68 | 1004.9 |
| 20260507021819 | 72 | 203 | 5.2 | 9.6 | 0.00 | 0.00 | 0.00 | 68 | 1004.7 |
| 20260507020802 | 72 | 225 | 3.5 | 9.6 | 0.00 | 0.00 | 0.00 | 68 | 1004.2 |
| 20260507020248 | 71 | 315 | 1.7 | 7.0 | 0.00 | 0.00 | 0.00 | 69 | 1004.6 |
| 20260507015738 | 71 | 180 | 3.5 | 12.2 | 0.00 | 0.00 | 0.00 | 70 | 1004.3 |
| 20260507014718 | 73 | 248 | 7.0 | 12.2 | 0.00 | 0.00 | 0.00 | 69 | 1003.7 |
| 20260507014211 | 71 | 248 | 0.9 | 3.5 | 0.00 | 0.00 | 0.00 | 73 | 1003.6 |
| 20260507013658 | 72 | 248 | 0.9 | 9.6 | 0.00 | 0.00 | 0.00 | 74 | 1003.2 |
| 20260507013148 | 72 | 225 | 0.9 | 9.6 | 0.00 | 0.00 | 0.00 | 74 | 1003.5 |
| 20260507012641 | 71 | 248 | 0.0 | 3.5 | 0.00 | 0.00 | 0.00 | 75 | 1003.3 |
| 20260507012127 | 72 | 315 | 1.7 | 3.5 | 0.00 | 0.00 | 0.00 | 75 | 1003.4 |
| 20260507011618 | 72 | 225 | 0.0 | 6.1 | 0.00 | 0.00 | 0.00 | 75 | 1003.1 |
| 20260507010558 | 70 | 113 | 2.6 | 5.2 | 0.00 | 0.00 | 0.00 | 77 | 1002.9 |
| 20260507005536 | 70 | 180 | 0.0 | 1.7 | 0.00 | 0.00 | 0.00 | 78 | 1003.1 |
| 20260507005026 | 70 | 248 | 0.0 | 1.7 | 0.00 | 0.00 | 0.00 | 78 | 1003.6 |
| 20260507004517 | 71 | 135 | 0.9 | 3.5 | 0.00 | 0.00 | 0.00 | 76 | 1003.6 |
| 20260507004006 | 71 | 135 | 1.7 | 3.5 | 0.00 | 0.00 | 0.00 | 76 | 1003.7 |
| 20260507003459 | 71 | 248 | 1.7 | 3.5 | 0.00 | 0.00 | 0.00 | 75 | 1003.6 |
| 20260507002951 | 71 | 248 | 1.7 | 3.5 | 0.00 | 0.00 | 0.00 | 75 | 1003.9 |
| 20260507002436 | 72 | 225 | 1.7 | 3.5 | 0.00 | 0.00 | 0.00 | 73 | 1003.6 |
| 20260507001934 | 71 | 248 | 0.0 | 1.7 | 0.00 | 0.00 | 0.00 | 74 | 1004.1 |
| 20260507000915 | 72 | 248 | 0.0 | 1.7 | 0.00 | 0.00 | 0.00 | 72 | 1003.9 |
| 20260507000401 | 72 | 248 | 0.0 | 3.5 | 0.00 | 0.00 | 0.00 | 72 | 1003.8 |
| 20260506235846 | 73 | 270 | 1.7 | 3.5 | 0.00 | 0.00 | 0.00 | 71 | 1004.3 |
| 20260506235336 | 73 | 248 | 1.7 | 3.5 | 0.00 | 0.00 | 0.00 | 70 | 1003.8 |
| 20260506234824 | 73 | 293 | 1.7 | 1.7 | 0.00 | 0.00 | 0.00 | 70 | 1004.1 |
| 20260506234318 | 73 | 225 | 0.9 | 6.1 | 0.00 | 0.00 | 0.00 | 70 | 1003.8 |
| 20260506233805 | 74 | 270 | 0.0 | 6.1 | 0.00 | 0.00 | 0.00 | 68 | 1004.2 |
| 20260506233255 | 74 | 270 | 0.0 | 3.5 | 0.00 | 0.00 | 0.00 | 68 | 1003.8 |
| 20260506232744 | 74 | 270 | 0.0 | 3.5 | 0.00 | 0.00 | 0.00 | 67 | 1003.7 |
| 20260506231727 | 75 | 338 | 0.0 | 3.5 | 0.00 | 0.00 | 0.00 | 66 | 1003.6 |
| 20260506231226 | 75 | 338 | 0.0 | 5.2 | 0.00 | 0.00 | 0.00 | 65 | 1003.9 |
| 20260506230717 | 75 | 315 | 0.9 | 5.2 | 0.00 | 0.00 | 0.00 | 65 | 1003.9 |
| 20260506230154 | 75 | 270 | 0.9 | 3.5 | 0.00 | 0.00 | 0.00 | 65 | 1003.8 |
| 20260506225644 | 75 | 293 | 1.7 | 3.5 | 0.00 | 0.00 | 0.00 | 65 | 1004.4 |
| 20260506225138 | 75 | 248 | 0.0 | 3.5 | 0.00 | 0.00 | 0.00 | 65 | 1003.8 |
| 20260506224623 | 76 | 315 | 1.7 | 3.5 | 0.00 | 0.00 | 0.00 | 64 | 1004.5 |
| 20260506224112 | 76 | 338 | 0.9 | 3.5 | 0.00 | 0.00 | 0.00 | 64 | 1003.9 |
| 20260506223053 | 76 | 248 | 0.9 | 3.5 | 0.00 | 0.00 | 0.00 | 63 | 1003.9 |
| 20260506222545 | 77 | 248 | 1.7 | 3.5 | 0.00 | 0.00 | 0.00 | 63 | 1004.2 |
| 20260506222032 | 77 | 315 | 2.6 | 3.5 | 0.00 | 0.00 | 0.00 | 62 | 1004.1 |
| 20260506221522 | 77 | 248 | 1.7 | 5.2 | 0.00 | 0.00 | 0.00 | 61 | 1003.9 |
| 20260506221012 | 77 | 270 | 0.0 | 5.2 | 0.00 | 0.00 | 0.00 | 61 | 1004.2 |
| 20260506220502 | 78 | 270 | 1.7 | 3.5 | 0.00 | 0.00 | 0.00 | 62 | 1004.1 |
| 20260506215441 | 78 | 248 | 0.0 | 3.5 | 0.00 | 0.00 | 0.00 | 61 | 1003.9 |
| 20260506213911 | 79 | 293 | 0.0 | 7.0 | 0.00 | 0.00 | 0.00 | 61 | 1004.1 |
| 20260506213405 | 81 | 225 | 1.7 | 7.0 | 0.00 | 0.00 | 0.00 | 58 | 1003.9 |
| 20260506212850 | 81 | 203 | 1.7 | 3.5 | 0.00 | 0.00 | 0.00 | 57 | 1003.6 |
| 20260506212342 | 82 | 180 | 1.7 | 1.7 | 0.00 | 0.00 | 0.00 | 55 | 1003.8 |
| 20260506211831 | 83 | 180 | 0.0 | 1.7 | 0.00 | 0.00 | 0.00 | 54 | 1004.1 |
| 20260506211321 | 83 | 225 | 0.9 | 1.7 | 0.00 | 0.00 | 0.00 | 52 | 1003.9 |
| 20260506210813 | 85 | 225 | 0.0 | 1.7 | 0.00 | 0.00 | 0.00 | 49 | 1004.1 |
| 20260506210259 | 85 | 225 | 0.0 | 1.7 | 0.00 | 0.00 | 0.00 | 49 | 1003.6 |
| 20260506205749 | 85 | 225 | 0.0 | 1.7 | 0.00 | 0.00 | 0.00 | 49 | 1003.7 |
| 20260506204729 | 85 | 225 | 1.7 | 1.7 | 0.00 | 0.00 | 0.00 | 49 | 1003.6 |
| 20260506204221 | 85 | 248 | 1.7 | 1.7 | 0.00 | 0.00 | 0.00 | 49 | 1003.7 |
| 20260506202657 | 87 | 248 | 0.9 | 1.7 | 0.00 | 0.00 | 0.00 | 47 | 1003.7 |
| 20260506201257 | 87 | 248 | 0.9 | 1.7 | 0.00 | 0.00 | 0.00 | 46 | 1003.7 |
| 20260506200747 | 87 | 248 | 0.9 | 1.7 | 0.00 | 0.00 | 0.00 | 46 | 1003.9 |
| 20260506200237 | 86 | 225 | 0.9 | 3.5 | 0.00 | 0.00 | 0.00 | 47 | 1004.1 |
| 20260506195727 | 86 | 225 | 2.6 | 3.5 | 0.00 | 0.00 | 0.00 | 47 | 1003.7 |
| 20260506195220 | 86 | 180 | 0.9 | 3.5 | 0.00 | 0.00 | 0.00 | 48 | 1003.9 |
| 20260506194706 | 86 | 158 | 0.9 | 3.5 | 0.00 | 0.00 | 0.00 | 48 | 1003.4 |
| 20260506194157 | 87 | 135 | 0.0 | 3.5 | 0.00 | 0.00 | 0.00 | 46 | 1003.7 |
| 20260506193647 | 87 | 203 | 0.0 | 3.5 | 0.00 | 0.00 | 0.00 | 46 | 1003.7 |
| 20260506193137 | 85 | 180 | 1.7 | 3.5 | 0.00 | 0.00 | 0.00 | 49 | 1003.6 |
| 20260506192629 | 85 | 113 | 1.7 | 3.5 | 0.00 | 0.00 | 0.00 | 48 | 1003.8 |
| 20260506192116 | 85 | 113 | 1.7 | 3.5 | 0.00 | 0.00 | 0.00 | 49 | 1003.6 |
| 20260506191606 | 85 | 113 | 1.7 | 3.5 | 0.00 | 0.00 | 0.00 | 49 | 1003.6 |
| 20260506190545 | 85 | 90 | 1.7 | 5.2 | 0.00 | 0.00 | 0.00 | 49 | 1003.6 |
| 20260506190039 | 86 | 45 | 0.0 | 5.2 | 0.00 | 0.00 | 0.00 | 48 | 1003.7 |
| 20260506185525 | 85 | 68 | 0.9 | 5.2 | 0.00 | 0.00 | 0.00 | 48 | 1003.5 |
| 20260506185015 | 86 | 338 | 0.9 | 3.5 | 0.00 | 0.00 | 0.00 | 47 | 1003.5 |
| 20260506183954 | 84 | 315 | 2.6 | 3.5 | 0.00 | 0.00 | 0.00 | 49 | 1003.5 |
| 20260506183446 | 84 | 0.0 | 0.0 | 0.00 | 0.00 | 0.00 | 49 | ||
| 20260506182235 | 83 | 225 | 1.7 | 1.7 | 0.00 | 0.00 | 0.00 | 49 | 1004.1 |
| 20260506181212 | 84 | 225 | 0.9 | 3.5 | 0.00 | 0.00 | 0.00 | 48 | 1004.2 |
| 20260506180150 | 83 | 180 | 1.7 | 3.5 | 0.00 | 0.00 | 0.00 | 49 | 1004.6 |
| 20260506175644 | 82 | 135 | 0.9 | 3.5 | 0.00 | 0.00 | 0.00 | 51 | 1004.5 |
| 20260506175131 | 82 | 135 | 1.7 | 3.5 | 0.00 | 0.00 | 0.00 | 51 | 1004.8 |
| 20260506174620 | 82 | 158 | 0.9 | 3.5 | 0.00 | 0.00 | 0.00 | 51 | 1004.7 |
| 20260506174111 | 81 | 180 | 2.6 | 5.2 | 0.00 | 0.00 | 0.00 | 52 | 1005.0 |
| 20260506173608 | 80 | 158 | 2.6 | 5.2 | 0.00 | 0.00 | 0.00 | 53 | 1004.9 |
| 20260506173054 | 80 | 203 | 1.7 | 6.1 | 0.00 | 0.00 | 0.00 | 54 | 1005.4 |
| 20260506172544 | 80 | 203 | 2.6 | 7.0 | 0.00 | 0.00 | 0.00 | 54 | 1005.2 |
| 20260506172030 | 79 | 203 | 3.5 | 7.0 | 0.00 | 0.00 | 0.00 | 55 | 1005.6 |
| 20260506171519 | 79 | 203 | 2.6 | 3.5 | 0.00 | 0.00 | 0.00 | 55 | 1005.6 |
| 20260506171010 | 80 | 180 | 0.0 | 3.5 | 0.00 | 0.00 | 0.00 | 53 | 1005.8 |
| 20260506170502 | 79 | 158 | 1.7 | 3.5 | 0.00 | 0.00 | 0.00 | 56 | 1005.4 |
| 20260506165949 | 78 | 135 | 1.7 | 3.5 | 0.00 | 0.00 | 0.00 | 55 | 1006.0 |
| 20260506165439 | 78 | 158 | 2.6 | 3.5 | 0.00 | 0.00 | 0.00 | 55 | 1005.8 |
| 20260506164928 | 78 | 113 | 1.7 | 3.5 | 0.00 | 0.00 | 0.00 | 55 | 1006.3 |
| 20260506164418 | 78 | 113 | 1.7 | 3.5 | 0.00 | 0.00 | 0.00 | 57 | 1006.3 |